NI4CE-14 Weather Reports


time (UTC)temp
C
wind
direction
speed
KPH
gust
KPH
rain 1hr
cm
rain 24hr
cm
rain mn
cm
humidity
%
barometer
mb
20260504141317 27 177 9.7 16.1 0.00 0.00 0.00 100 1015.0
20260504140817 27 66 3.2 16.1 0.00 0.00 0.00 100 1015.4
20260504140317 27 229 0.0 17.7 0.00 0.00 0.00 100 1015.3
20260504130817 26 88 8.0 14.5 0.00 0.00 0.00 100 1015.0
20260504130317 26 87 8.0 14.5 0.00 0.00 0.00 100 1015.0
20260504120317 23 146 4.8 14.5 0.00 0.00 0.00 100 1014.7
20260504110317 23 170 0.0 8.0 0.00 0.00 0.00 100 1014.4
20260504100317 23 50 0.0 4.8 0.00 0.00 0.00 100 1014.0
20260504081817 23 112 3.2 9.7 0.00 0.00 0.00 100 1014.2
20260504081317 23 206 3.2 9.7 0.00 0.00 0.00 100 1014.2
20260504080817 23 71 0.0 6.4 0.00 0.00 0.00 100 1014.2
20260504080317 24 99 0.0 8.0 0.00 0.00 0.00 100 1014.1
20260504070318 25 88 1.6 3.2 0.00 0.00 0.00 100 1014.6
20260504050338 25 120 0.0 0.0 0.00 0.00 0.00 100 1015.2
20260504050318 25 120 0.0 0.0 0.00 0.00 0.00 100 1015.3
20260504045818 25 120 0.0 0.0 0.00 0.00 0.00 100 1015.2
20260504045318 25 120 0.0 0.0 0.00 0.00 0.00 100 1015.2
20260504044818 25 120 0.0 0.0 0.00 0.00 0.00 100 1015.3
20260504044318 25 120 0.0 0.0 0.00 0.00 0.00 100 1015.3
20260504044140 26 120 0.0 4.8 0.00 0.00 0.00 100 1014.8
20260504043818 26 120 0.0 4.8 0.00 0.00 0.00 100 1014.8
20260504043318 26 21 0.0 6.4 0.00 0.00 0.00 100 1015.1
20260504042818 26 157 0.0 6.4 0.00 0.00 0.00 100 1015.2
20260504042318 26 192 0.0 3.2 0.00 0.00 0.00 100 1015.4
20260504041818 26 187 0.0 3.2 0.00 0.00 0.00 100 1015.6
20260504041318 26 205 1.6 3.2 0.00 0.00 0.00 100 1015.6
20260504040818 26 151 0.0 1.6 0.00 0.00 0.00 100 1015.7
20260504040318 26 66 0.0 0.0 0.00 0.00 0.00 100 1015.8
20260504035818 26 66 0.0 0.0 0.00 0.00 0.00 100 1015.8
20260504035318 26 66 0.0 0.0 0.00 0.00 0.00 100 1015.8
20260504034818 26 66 0.0 0.0 0.00 0.00 0.00 100 1015.8
20260504034318 26 66 0.0 6.4 0.00 0.00 0.00 100 1015.8
20260504033818 26 77 0.0 1.6 0.00 0.00 0.00 100 1015.8
20260504033318 26 60 0.0 0.0 0.00 0.00 0.00 100 1015.7
20260504033141 26 60 0.0 0.0 0.00 0.00 0.00 100 1015.7
20260504032818 26 60 0.0 0.0 0.00 0.00 0.00 100 1015.7
20260504032743 26 60 0.0 0.0 0.00 0.00 0.00 100 1015.6
20260504032318 26 60 0.0 0.0 0.00 0.00 0.00 100 1015.7
20260504031818 26 60 0.0 0.0 0.00 0.00 0.00 100 1015.7
20260504031318 26 60 0.0 0.0 0.00 0.00 0.00 100 1015.7
20260504030818 26 60 0.0 0.0 0.00 0.00 0.00 100 1015.6
20260504030318 26 60 0.0 0.0 0.00 0.00 0.00 100 1015.6
20260504025818 26 60 0.0 0.0 0.00 0.00 0.00 100 1015.6
20260504025318 26 60 0.0 1.6 0.00 0.00 0.00 100 1015.5
20260504024818 26 165 1.6 3.2 0.00 0.00 0.00 100 1015.6
20260504024318 26 113 0.0 6.4 0.00 0.00 0.00 100 1015.4
20260504023818 26 116 0.0 3.2 0.00 0.00 0.00 100 1014.1
20260504023318 26 71 0.0 4.8 0.00 0.00 0.00 100 1015.4
20260504022818 26 94 0.0 6.4 0.00 0.00 0.00 100 1015.3
20260504022318 26 64 1.6 8.0 0.00 0.00 0.00 100 1015.2
20260504022229 26 54 0.0 6.4 0.00 0.00 0.00 100 1015.3
20260504021818 26 54 0.0 6.4 0.00 0.00 0.00 100 1015.3
20260504021318 26 33 1.6 4.8 0.00 0.00 0.00 100 1015.2
20260504020818 26 25 0.0 6.4 0.00 0.00 0.00 100 1015.1
20260504020318 26 92 3.2 9.7 0.00 0.00 0.00 100 1015.0
20260504015818 26 66 3.2 9.7 0.00 0.00 0.00 100 1015.0
20260504015318 26 108 3.2 4.8 0.00 0.00 0.00 100 1014.9
20260504014818 26 70 0.0 6.4 0.00 0.00 0.00 100 1014.8
20260504014318 26 63 6.4 8.0 0.00 0.00 0.00 100 1014.7
20260504013818 26 88 0.0 4.8 0.00 0.00 0.00 100 1014.6
20260504013318 26 77 0.0 8.0 0.00 0.00 0.00 100 1014.5
20260504013228 26 37 0.0 9.7 0.00 0.00 0.00 100 1014.4
20260504012917 26 37 0.0 9.7 0.00 0.00 0.00 100 1014.4
20260504012818 26 37 0.0 9.7 0.00 0.00 0.00 100 1014.4
20260504012444 26 78 6.4 6.4 0.00 0.00 0.00 100 1014.3
20260504012318 26 29 0.0 9.7 0.00 0.00 0.00 100 1014.4
20260504011818 26 78 6.4 6.4 0.00 0.00 0.00 100 1014.3
20260504011338 26 63 0.0 0.0 0.00 0.00 0.00 100 1011.5
20260504011318 26 49 0.0 6.4 0.00 0.00 0.00 100 1014.4
20260504010818 26 63 0.0 0.0 0.00 0.00 0.00 100 1011.5
20260504010339 26 63 0.0 3.2 0.00 0.00 0.00 100 1011.6
20260504010318 26 63 0.0 0.0 0.00 0.00 0.00 100 1014.1
20260504005818 26 63 0.0 3.2 0.00 0.00 0.00 100 1011.6
20260504005318 26 32 0.0 6.4 0.00 0.00 0.00 100 1011.7
20260504004818 26 92 1.6 9.7 0.00 0.00 0.00 100 1011.4
20260504004318 26 64 1.6 14.5 0.00 0.00 0.00 100 1011.9
20260504003818 26 16 6.4 12.9 0.00 0.00 0.00 100 1011.4
20260504003730 27 78 6.4 8.0 0.00 0.00 0.00 100 1012.0
20260504003318 27 25 4.8 11.3 0.00 0.00 0.00 100 1011.3
20260504002818 27 78 6.4 8.0 0.00 0.00 0.00 100 1012.0
20260504002318 27 42 1.6 9.7 0.00 0.00 0.00 100 1011.4
20260504001818 26 23 6.4 12.9 0.00 0.00 0.00 100 1011.2
20260504001318 27 8 1.6 8.0 0.00 0.00 0.00 100 1011.7
20260504000818 27 15 0.0 11.3 0.00 0.00 0.00 100 1011.7
20260504000318 27 97 0.0 11.3 0.00 0.00 0.00 100 1013.1
20260503235818 27 16 0.0 11.3 0.00 0.00 0.00 100 1013.5
20260503235318 27 91 8.0 11.3 0.00 0.00 0.00 100 1013.5
20260503234818 27 81 0.0 11.3 0.00 0.00 0.00 100 1013.5
20260503234318 27 50 0.0 14.5 0.00 0.00 0.00 100 1012.2
20260503233818 27 81 8.0 12.9 0.00 0.00 0.00 100 1013.5
20260503233318 27 18 8.0 11.3 0.00 0.00 0.00 100 1013.5
20260503232818 27 18 3.2 11.3 0.00 0.00 0.00 100 1013.5
20260503232318 27 5 3.2 12.9 0.00 0.00 0.00 100 1013.6
20260503231818 27 358 9.7 12.9 0.00 0.00 0.00 100 1013.7
20260503231318 27 14 3.2 12.9 0.00 0.00 0.00 100 1013.7
20260503230818 27 16 0.0 11.3 0.00 0.00 0.00 100 1013.7
20260503230318 27 336 3.2 12.9 0.00 0.00 0.00 100 1013.6
20260503225818 27 28 4.8 14.5 0.00 0.00 0.00 100 1013.5
20260503225358 27 355 6.4 14.5 0.00 0.00 0.00 100 1013.5
20260503225318 27 355 6.4 14.5 0.00 0.00 0.00 100 1013.5
20260503224818 28 14 0.0 14.5 0.00 0.00 0.00 100 1013.5
20260503224318 28 323 9.7 12.9 0.00 0.00 0.00 100 1013.4
20260503223818 27 15 6.4 16.1 0.00 0.00 0.00 100 1013.4
20260503223318 28 298 1.6 12.9 0.00 0.00 0.00 100 1013.5
20260503222818 28 36 1.6 12.9 0.00 0.00 0.00 100 1013.4
20260503222739 28 22 1.6 16.1 0.00 0.00 0.00 100 1013.5
20260503222320 28 63 1.6 12.9 0.00 0.00 0.00 100 1013.5
20260503221818 28 343 0.0 14.5 0.00 0.00 0.00 100 1013.5
20260503221319 28 22 1.6 16.1 0.00 0.00 0.00 100 1013.5
20260503221147 28 36 3.2 16.1 0.00 0.00 0.00 100 1013.5
20260503220818 28 36 3.2 16.1 0.00 0.00 0.00 100 1013.5
20260503220318 27 0 12.9 14.5 0.00 0.00 0.00 100 1013.5
20260503215818 27 75 4.8 12.9 0.00 0.00 0.00 100 1013.6
20260503215318 28 322 8.0 17.7 0.00 0.00 0.00 100 1013.6
20260503214818 28 66 3.2 16.1 0.00 0.00 0.00 100 1013.6
20260503214318 28 28 3.2 14.5 0.00 0.00 0.00 100 1013.6
20260503213818 28 9 6.4 16.1 0.00 0.00 0.00 100 1013.4
20260503213318 27 59 1.6 17.7 0.00 0.00 0.00 100 1013.4
20260503213036 27 26 3.2 14.5 0.00 0.00 0.00 100 1013.4
20260503212818 27 26 3.2 14.5 0.00 0.00 0.00 100 1013.4
20260503212613 27 80 8.0 17.7 0.00 0.00 0.00 100 1013.5
20260503212318 27 80 8.0 17.7 0.00 0.00 0.00 100 1013.5
20260503211818 28 45 11.3 17.7 0.00 0.00 0.00 100 1013.5
20260503211318 28 85 8.0 17.7 0.00 0.00 0.00 100 1013.5
20260503210818 28 104 1.6 16.1 0.00 0.00 0.00 100 1013.5
20260503210318 28 348 3.2 16.1 0.00 0.00 0.00 100 1013.5
20260503205818 27 16 1.6 16.1 0.00 0.00 0.00 100 1013.6
20260503205318 28 4 9.7 16.1 0.00 0.00 0.00 100 1013.5
20260503204818 28 327 16.1 16.1 0.00 0.00 0.00 100 1013.6
20260503204318 28 47 4.8 17.7 0.00 0.00 0.00 100 1013.6
20260503203818 28 19 6.4 17.7 0.00 0.00 0.00 100 1013.4
20260503203319 28 5 8.0 17.7 0.00 0.00 0.00 100 1013.5
20260503202819 28 61 1.6 17.7 0.00 0.00 0.00 100 1013.6
20260503202319 28 37 1.6 17.7 0.00 0.00 0.00 100 1013.6
20260503201818 28 9 8.0 17.7 0.00 0.00 0.00 100 1013.3
20260503201318 28 19 14.5 19.3 0.00 0.00 0.00 100 1013.8
20260503200819 28 102 4.8 20.9 0.00 0.00 0.00 100 1013.9
20260503200319 28 326 12.9 17.7 0.00 0.00 0.00 100 1013.9
20260503195818 28 327 9.7 17.7 0.00 0.00 0.00 100 1014.1
20260503195319 28 63 14.5 19.3 0.00 0.00 0.00 100 1014.1
20260503195235 28 43 9.7 17.7 0.00 0.00 0.00 100 1014.3
20260503194819 28 43 9.7 17.7 0.00 0.00 0.00 100 1014.3
20260503194319 28 33 14.5 17.7 0.00 0.00 0.00 100 1014.2
20260503193819 28 47 4.8 17.7 0.00 0.00 0.00 100 1014.1
20260503193319 28 5 8.0 19.3 0.00 0.00 0.00 100 1014.3
20260503192819 28 32 9.7 14.5 0.00 0.00 0.00 100 1014.3
20260503192319 28 53 8.0 16.1 0.00 0.00 0.00 100 1014.5
20260503191819 28 42 14.5 22.5 0.00 0.00 0.00 100 1014.6
20260503191610 28 68 9.7 17.7 0.00 0.00 0.00 100 1014.6
20260503191319 28 68 9.7 17.7 0.00 0.00 0.00 100 1014.6
20260503190819 28 46 9.7 16.1 0.00 0.00 0.00 100 1014.8
20260503190319 28 40 11.3 22.5 0.00 0.00 0.00 100 1014.8
20260503185819 28 56 9.7 16.1 0.00 0.00 0.00 100 1014.9
20260503185319 27 21 11.3 19.3 0.00 0.00 0.00 100 1015.0
20260503184819 28 82 3.2 17.7 0.00 0.00 0.00 100 1015.2
20260503184319 28 352 12.9 20.9 0.00 0.00 0.00 100 1015.2
20260503184251 28 25 20.9 20.9 0.00 0.00 0.00 100 1015.3
20260503184218 28 25 20.9 20.9 0.00 0.00 0.00 100 1015.3
20260503183819 28 25 20.9 20.9 0.00 0.00 0.00 100 1015.3
20260503183319 28 77 14.5 16.1 0.00 0.00 0.00 100 1015.2
20260503182819 28 46 9.7 16.1 0.00 0.00 0.00 100 1015.3
20260503182319 28 35 8.0 12.9 0.00 0.00 0.00 100 1015.4
20260503181819 29 23 1.6 12.9 0.00 0.00 0.00 100 1015.5
20260503181319 29 90 8.0 9.7 0.00 0.00 0.00 100 1015.5
20260503180819 29 352 0.0 6.4 0.00 0.00 0.00 100 1015.5
20260503180424 29 113 3.2 9.7 0.00 0.00 0.00 100 1015.5
20260503180319 29 113 3.2 9.7 0.00 0.00 0.00 100 1015.5
20260503175819 29 92 3.2 12.9 0.00 0.00 0.00 100 1015.5
20260503175319 29 144 1.6 4.8 0.00 0.00 0.00 100 1015.5
20260503175257 28 165 3.2 6.4 0.00 0.00 0.00 100 1015.6
20260503174819 28 165 3.2 6.4 0.00 0.00 0.00 100 1015.6
20260503174325 28 66 4.8 11.3 0.00 0.00 0.00 100 1015.6
20260503174319 28 154 4.8 8.0 0.00 0.00 0.00 100 1015.6
20260503173819 28 66 4.8 11.3 0.00 0.00 0.00 100 1015.6
20260503173319 28 105 0.0 9.7 0.00 0.00 0.00 100 1015.6
20260503172819 28 75 4.8 9.7 0.00 0.00 0.00 100 1015.6
20260503172319 28 81 4.8 16.1 0.00 0.00 0.00 100 1015.8
20260503171819 28 163 4.8 11.3 0.00 0.00 0.00 100 1015.7
20260503171319 28 45 6.4 12.9 0.00 0.00 0.00 100 1015.8
20260503170819 27 102 4.8 14.5 0.00 0.00 0.00 100 1016.0
20260503170319 27 171 3.2 17.7 0.00 0.00 0.00 100 1016.1
20260503150819 26 30 4.8 14.5 0.00 0.00 0.00 100 1016.8
20260503150319 25 81 8.0 14.5 0.00 0.00 0.00 100 1016.8